{"data":{"norad_id":49286,"epoch":"2026-09-19T22:32:19.943808Z","epoch_age_seconds":56294,"freshness":"FRESH","line1":"1 49286U 21090H   26262.93911972  .00000115  00000+0  25049-3 0  9999","line2":"2 49286  87.9142 255.5380 0001880  87.8388 272.2961 13.20772244242356","mean_motion":13.20772244,"eccentricity":0.000188,"inclination_deg":87.9142,"raan_deg":255.538,"arg_perigee_deg":87.8388,"mean_anomaly_deg":272.2961,"bstar":0.00025049,"rev_number":24235,"period_min":109.02712458879,"perigee_km":1180.3504649826,"apogee_km":1183.1929906642,"semimajor_km":7559.9087278234,"source":"CELESTRAK","updated_at":"2026-09-20T09:00:44.669787Z"}}